Location: Pagani
(40.7500°N, 14.6167°E)
Time: 07:43:29
(UTC+00:00)

Meteor 2-2 Rocket - Pass Details

Date: 15 May 2026
Orbit: 852 x 926 km, 81.3° (Epoch: 5 June)

Event Time Altitude Azimuth Distance (km) Brightness Sun altitude
Exits shadow 21:22:14 73° 132° (SE) 904 4.1 -26.2°
Maximum altitude 21:22:34 76° 97° (E) 894 4.1 -26.2°
Drops below altitude 10° 21:28:19 10° 13° (NNE) 2,539 7.3 -26.7°
Sets 21:30:47 0° 12° (NNE) 3,493 8.2 -26.9°
